Location: Newark
(49.8969°N, 3.3422°E)
Time: 11:32:24
(UTC+00:00)

Explorer 7 - Pass Details

Date: 24 January 2020
Orbit: 485 x 679 km, 50.3° (Epoch: 23 February)

Event Time Altitude Azimuth Distance (km) Brightness Sun altitude
Rises 05:06:58 0° 282° (WNW) 2,599 - -22.9°
Reaches altitude 10° 05:09:33 10° 265° (W) 1,737 - -22.5°
Maximum altitude 05:12:25 19° 218° (SW) 1,276 - -22.0°
Exits shadow 05:13:49 17° 191° (S) 1,418 8.8 -21.8°
Drops below altitude 10° 05:15:23 10° 171° (S) 1,803 9.6 -21.5°
Sets 05:18:08 0° 154° (SSE) 2,734 10.8 -21.1°
